2023-110A

Last updated on Sat Aug 26 2023 00:02:06 GMT+0000 (Coordinated Universal Time)

1 57488U 23110A 23236.47944470 .00018070 00000+0 32803-3 0 9998 2 57488 51.6432 350.2276 0003866 350.9420 100.7044 15.49631973412388

Satellite not in orbit

2023-110A